Hourly Data Report for September 29, 2015

EUREKA CLIMATE
NUNAVUT

79°59'21.000" N
85°56'02.000" W
10.00 m
2401199
71613
NEK

Download Data

Hourly Data (September 2015)
Hourly Data Report for September 29, 2015
TIME
LST
Temp Definition
°C
Dew Point Definition
°C
Rel Hum Definition
%
Precip. Amount Definition
mm

Wind Dir Definition
10's deg

Wind Spd Definition
km/h
Visibility Definition
km
Stn Press Definition
kPa
Hmdx Definition


Wind Chill Definition


Weather Definition


00:00 -20.3 -22.0 86 0.0 5 5   100.11   -25 LegendNANA
01:00 -19.4 -20.9 88 0.0 2 12   100.08   -27 LegendNANA
02:00 -18.1 -19.4 89 0.0 12 5   100.07   -22 LegendNANA
03:00 -17.9 -19.3 89 0.0 10 9   100.06   -24 LegendNANA
04:00 -17.1 -18.4 89 0.2 11 6   100.04   -22 LegendNANA
05:00 -17.2 -18.5 89 0.0 11 9   100.05   -23 LegendNANA
06:00 -17.1 -18.4 89 0.0 11 11   100.05   -24 LegendNANA
07:00 -16.5 -17.8 90 0.0 11 10   100.05   -23 LegendNANA
08:00 -15.8 -17.1 90 0.2 11 8   100.04   -21 LegendNANA
09:00 -14.8 -16.0 91 0.0 8 5   100.03   -18 LegendNANA
10:00 -14.6 -15.8 91 0.0 11 6   100.00   -19 LegendNANA
11:00 -14.0 -15.3 90 0.2 10 9   100.00   -20 LegendNANA
12:00 -13.8 -15.1 90 0.0 8 5   100.00   -17 LegendNANA
13:00 -13.2 -14.4 90 0.2 8 6   100.01   -17 LegendNANA
14:00 -12.8 -14.0 91 0.0 7 7   100.01   -17 LegendNANA
15:00 -12.4 -13.6 91 0.2 10 8   100.01   -17 LegendNANA
16:00 -12.1 -13.2 92 0.0 7 3   100.04   -14 LegendNANA
17:00 -11.2 -12.2 92 0.0 11 12   100.03   -17 LegendNANA
18:00 -11.7 -13.0 90 0.0 11 18   100.02   -20 LegendNANA
19:00 -11.9 -13.6 87 0.0 12 20   100.04   -20 LegendNANA
20:00 -11.0 -12.7 87 0.0 12 21   100.04   -19 LegendNANA
21:00 -10.2 -11.9 87 0.0 12 29   100.01   -20 LegendNANA
22:00 -10.7 -12.1 89 0.0 12 22   100.04   -19 LegendNANA
23:00 -10.3 -12.1 87 0.0 12 30   100.06   -20 LegendNANA

Notes on Data Quality.

Legend

  • E = Estimated
  • M = Missing
  • NA = Not Available*
  • [empty] = Indicates an unobserved value
Date modified: